Time,TemperatureF,DewpointF,PressureIn,WindDirection,WindDirectionDegrees,WindSpeedMPH,WindSpeedGustMPH,Humidity,HourlyPrecipIn,Conditions,Clouds,dailyrainin,SoftwareType,DateUTC
2013-01-03 00:04:00,44.4,41.7,30.17,NE,45,0.0,0.0,90,0.00,RA,,0.00,WeatherDisplay:10.37,2013-01-03 06:04:00,
2013-01-03 00:09:00,44.4,41.7,30.17,NE,45,0.0,0.0,90,0.00,RA,,0.00,WeatherDisplay:10.37,2013-01-03 06:09:00,
2013-01-03 00:14:00,44.4,41.7,30.17,ENE,68,0.0,0.0,90,0.00,CLR,,0.00,WeatherDisplay:10.37,2013-01-03 06:14:00,
2013-01-03 00:19:00,44.4,41.7,30.17,ENE,68,0.0,0.0,90,0.00,CLR,,0.00,WeatherDisplay:10.37,2013-01-03 06:19:00,
2013-01-03 00:24:00,44.2,41.5,30.17,NNE,22,0.0,0.0,90,0.02,RA,,0.02,WeatherDisplay:10.37,2013-01-03 06:24:00,
2013-01-03 00:29:00,43.9,41.1,30.18,ENE,68,6.9,11.9,90,0.00,RA,,0.02,WeatherDisplay:10.37,2013-01-03 06:29:00,
2013-01-03 00:34:00,43.9,41.1,30.18,ENE,68,0.0,0.0,90,0.00,CLR,,0.02,WeatherDisplay:10.37,2013-01-03 06:34:00,
2013-01-03 00:39:00,43.9,41.1,30.18,ENE,68,0.0,0.0,90,0.00,CLR,,0.02,WeatherDisplay:10.37,2013-01-03 06:39:00,
2013-01-03 00:44:00,43.7,41.0,30.18,ENE,68,0.0,0.0,90,0.00,CLR,,0.02,WeatherDisplay:10.37,2013-01-03 06:44:00,
2013-01-03 00:49:00,43.5,40.8,30.18,ENE,68,0.0,0.0,90,0.00,CLR,,0.02,WeatherDisplay:10.37,2013-01-03 06:49:00,
2013-01-03 00:54:00,43.5,40.8,30.19,ENE,68,0.0,0.0,90,0.00,RA,,0.04,WeatherDisplay:10.37,2013-01-03 06:54:00,
2013-01-03 00:59:00,43.7,41.0,30.19,ENE,68,0.0,0.0,90,0.00,RA,,0.04,WeatherDisplay:10.37,2013-01-03 06:59:00,
2013-01-03 01:04:00,43.7,41.0,30.19,ENE,68,0.0,0.0,90,0.04,,,0.04,WeatherDisplay:10.37,2013-01-03 07:04:00,
2013-01-03 01:09:00,43.7,41.0,30.19,ENE,68,0.0,0.0,90,0.04,CLR,,0.04,WeatherDisplay:10.37,2013-01-03 07:09:00,
2013-01-03 01:14:00,43.5,41.1,30.19,ENE,68,0.0,0.0,91,0.04,CLR,,0.04,WeatherDisplay:10.37,2013-01-03 07:14:00,
2013-01-03 01:19:00,43.5,41.1,30.19,ENE,68,0.0,0.0,91,0.04,CLR,,0.04,WeatherDisplay:10.37,2013-01-03 07:19:00,
2013-01-03 01:24:00,43.5,41.1,30.19,ENE,68,0.0,0.0,91,0.02,CLR,,0.04,WeatherDisplay:10.37,2013-01-03 07:24:00,
2013-01-03 01:29:00,43.5,40.8,30.18,ENE,68,0.0,0.0,90,0.04,RA,,0.06,WeatherDisplay:10.37,2013-01-03 07:29:00,
2013-01-03 01:34:00,43.5,41.1,30.18,ENE,68,0.0,0.0,91,0.04,RA,,0.06,WeatherDisplay:10.37,2013-01-03 07:34:00,
2013-01-03 01:39:00,43.3,40.9,30.18,ENE,68,0.0,0.0,91,0.04,CLR,,0.06,WeatherDisplay:10.37,2013-01-03 07:39:00,
2013-01-03 01:44:00,43.3,40.9,30.18,ENE,68,0.0,0.0,91,0.06,RA,,0.08,WeatherDisplay:10.37,2013-01-03 07:44:00,
2013-01-03 01:49:00,43.3,40.9,30.18,ENE,68,0.0,0.0,91,0.06,RA,,0.08,WeatherDisplay:10.37,2013-01-03 07:49:00,
2013-01-03 01:54:00,43.3,40.9,30.18,ENE,68,0.0,0.0,91,0.04,CLR,,0.08,WeatherDisplay:10.37,2013-01-03 07:54:00,
2013-01-03 02:00:00,43.3,40.9,30.19,ENE,68,0.0,0.0,91,0.04,CLR,,0.08,WeatherDisplay:10.37,2013-01-03 08:00:00,
2013-01-03 02:05:00,43.3,40.9,30.19,ENE,68,0.0,0.0,91,0.04,CLR,,0.08,WeatherDisplay:10.37,2013-01-03 08:05:00,
2013-01-03 02:10:00,43.3,40.9,30.18,ENE,68,0.0,0.0,91,0.06,RA,,0.10,WeatherDisplay:10.37,2013-01-03 08:10:00,
2013-01-03 02:15:00,43.3,40.9,30.18,ENE,68,0.0,0.0,91,0.06,RA,,0.10,WeatherDisplay:10.37,2013-01-03 08:15:00,
2013-01-03 02:20:00,43.3,40.9,30.18,ENE,68,0.0,0.0,91,0.06,CLR,,0.10,WeatherDisplay:10.37,2013-01-03 08:20:00,
2013-01-03 02:25:00,43.3,40.9,30.18,ENE,68,0.0,0.0,91,0.06,CLR,,0.10,WeatherDisplay:10.37,2013-01-03 08:25:00,
2013-01-03 02:30:00,43.2,40.7,30.18,ENE,68,0.0,0.0,91,0.04,CLR,,0.10,WeatherDisplay:10.37,2013-01-03 08:30:00,
2013-01-03 02:35:00,43.2,40.7,30.18,ENE,68,0.0,0.0,91,0.04,CLR,,0.10,WeatherDisplay:10.37,2013-01-03 08:35:00,
2013-01-03 02:40:00,43.0,40.5,30.18,ENE,68,0.0,0.0,91,0.04,CLR,,0.10,WeatherDisplay:10.37,2013-01-03 08:40:00,
2013-01-03 02:45:00,43.0,40.5,30.18,ENE,68,0.0,0.0,91,0.02,CLR,,0.10,WeatherDisplay:10.37,2013-01-03 08:45:00,
2013-01-03 02:50:00,42.6,40.2,30.19,ENE,68,2.3,2.3,91,0.02,CLR,,0.12,WeatherDisplay:10.37,2013-01-03 08:50:00,
2013-01-03 02:55:00,42.6,40.2,30.18,ENE,68,11.5,22.8,91,0.04,RA,,0.12,WeatherDisplay:10.37,2013-01-03 08:55:00,
2013-01-03 03:00:00,42.6,40.2,30.18,ENE,68,0.0,0.0,91,0.04,RA,,0.12,WeatherDisplay:10.37,2013-01-03 09:00:00,
2013-01-03 03:05:00,42.6,40.2,30.18,ENE,68,0.0,0.0,91,0.04,CLR,,0.12,WeatherDisplay:10.37,2013-01-03 09:05:00,
2013-01-03 03:10:00,42.4,40.0,30.18,ENE,68,0.0,0.0,91,0.02,CLR,,0.12,WeatherDisplay:10.37,2013-01-03 09:10:00,
2013-01-03 03:15:00,42.4,40.0,30.17,ENE,68,0.0,0.0,91,0.02,CLR,,0.12,WeatherDisplay:10.37,2013-01-03 09:15:00,
2013-01-03 03:20:00,42.4,40.0,30.18,ENE,68,0.0,0.0,91,0.02,CLR,,0.12,WeatherDisplay:10.37,2013-01-03 09:20:00,
2013-01-03 03:25:00,42.4,40.0,30.18,ENE,68,0.0,0.0,91,0.04,RA,,0.14,WeatherDisplay:10.37,2013-01-03 09:25:00,
2013-01-03 03:30:00,42.4,40.0,30.18,ENE,68,0.0,0.0,91,0.04,RA,,0.14,WeatherDisplay:10.37,2013-01-03 09:30:00,
2013-01-03 03:35:00,42.4,40.0,30.18,ENE,68,0.0,0.0,91,0.04,,,0.14,WeatherDisplay:10.37,2013-01-03 09:35:00,
2013-01-03 03:40:00,42.4,40.0,30.18,ENE,68,0.0,0.0,91,0.04,CLR,,0.14,WeatherDisplay:10.37,2013-01-03 09:40:00,
2013-01-03 03:45:00,42.4,40.0,30.19,ENE,68,0.0,0.0,91,0.04,CLR,,0.14,WeatherDisplay:10.37,2013-01-03 09:45:00,
2013-01-03 03:50:00,42.4,40.0,30.19,NE,45,0.0,0.0,91,0.04,CLR,,0.14,WeatherDisplay:10.37,2013-01-03 09:50:00,
2013-01-03 03:55:00,42.4,40.0,30.19,NE,45,0.0,0.0,91,0.04,RA,,0.16,WeatherDisplay:10.37,2013-01-03 09:55:00,
2013-01-03 04:00:00,42.4,40.0,30.19,NE,45,0.0,0.0,91,0.04,RA,,0.16,WeatherDisplay:10.37,2013-01-03 10:00:00,
2013-01-03 04:05:00,42.4,40.0,30.19,ENE,68,0.0,0.0,91,0.04,CLR,,0.16,WeatherDisplay:10.37,2013-01-03 10:05:00,
2013-01-03 04:10:00,42.4,40.0,30.19,NE,45,0.0,0.0,91,0.04,CLR,,0.16,WeatherDisplay:10.37,2013-01-03 10:10:00,
2013-01-03 04:15:00,42.4,40.0,30.20,ENE,68,0.0,0.0,91,0.04,CLR,,0.16,WeatherDisplay:10.37,2013-01-03 10:15:00,
2013-01-03 04:20:00,42.3,39.8,30.20,ENE,68,0.0,0.0,91,0.04,CLR,,0.16,WeatherDisplay:10.37,2013-01-03 10:20:00,
2013-01-03 04:25:00,42.3,39.8,30.20,ENE,68,0.0,0.0,91,0.02,CLR,,0.16,WeatherDisplay:10.37,2013-01-03 10:25:00,
2013-01-03 04:30:00,42.3,39.8,30.20,ENE,68,0.0,0.0,91,0.02,CLR,,0.16,WeatherDisplay:10.37,2013-01-03 10:30:00,
2013-01-03 04:35:00,42.4,40.0,30.20,SW,225,0.0,0.0,91,0.02,CLR,,0.16,WeatherDisplay:10.37,2013-01-03 10:35:00,
2013-01-03 04:40:00,42.4,40.0,30.19,SW,225,0.0,0.0,91,0.02,CLR,,0.16,WeatherDisplay:10.37,2013-01-03 10:40:00,
2013-01-03 04:45:00,42.3,39.8,30.19,SW,225,0.0,0.0,91,0.02,CLR,,0.16,WeatherDisplay:10.37,2013-01-03 10:45:00,
2013-01-03 04:51:00,42.1,39.6,30.20,SSW,202,0.0,0.0,91,0.02,CLR,,0.16,WeatherDisplay:10.37,2013-01-03 10:51:00,
2013-01-03 04:56:00,42.1,39.6,30.20,ENE,68,0.0,0.0,91,0.00,CLR,,0.16,WeatherDisplay:10.37,2013-01-03 10:56:00,
2013-01-03 05:01:00,42.1,39.6,30.20,ENE,68,0.0,0.0,91,0.00,CLR,,0.16,WeatherDisplay:10.37,2013-01-03 11:01:00,
2013-01-03 05:06:00,42.1,39.6,30.20,ENE,68,0.0,0.0,91,0.00,CLR,,0.16,WeatherDisplay:10.37,2013-01-03 11:06:00,
2013-01-03 05:11:00,42.1,39.6,30.20,ENE,68,0.0,0.0,91,0.02,RA,,0.18,WeatherDisplay:10.37,2013-01-03 11:11:00,
2013-01-03 05:16:00,42.1,39.9,30.22,ENE,68,0.0,0.0,92,0.02,RA,,0.18,WeatherDisplay:10.37,2013-01-03 11:16:00,
2013-01-03 05:21:00,42.3,40.1,30.22,ENE,68,0.0,0.0,92,0.02,CLR,,0.18,WeatherDisplay:10.37,2013-01-03 11:21:00,
2013-01-03 05:26:00,42.4,40.3,30.22,ENE,68,0.0,0.0,92,0.02,CLR,,0.18,WeatherDisplay:10.37,2013-01-03 11:26:00,
2013-01-03 05:31:00,42.4,40.3,30.22,ENE,68,0.0,0.0,92,0.02,CLR,,0.18,WeatherDisplay:10.37,2013-01-03 11:31:00,
2013-01-03 05:36:00,42.4,40.3,30.22,ENE,68,0.0,0.0,92,0.02,CLR,,0.18,WeatherDisplay:10.37,2013-01-03 11:36:00,
2013-01-03 05:41:00,42.1,39.9,30.21,ENE,68,0.0,0.0,92,0.02,CLR,,0.18,WeatherDisplay:10.37,2013-01-03 11:41:00,
2013-01-03 05:46:00,42.1,39.9,30.21,NE,45,0.0,0.0,92,0.04,RA,,0.20,WeatherDisplay:10.37,2013-01-03 11:46:00,
2013-01-03 05:51:00,42.1,39.9,30.21,NE,45,0.0,0.0,92,0.04,RA,,0.20,WeatherDisplay:10.37,2013-01-03 11:51:00,
2013-01-03 05:56:00,42.1,39.9,30.21,NE,45,0.0,0.0,92,0.04,CLR,,0.20,WeatherDisplay:10.37,2013-01-03 11:56:00,
2013-01-03 06:01:00,42.1,39.9,30.21,NE,45,0.0,0.0,92,0.04,CLR,,0.20,WeatherDisplay:10.37,2013-01-03 12:01:00,
2013-01-03 06:06:00,42.1,39.9,30.21,NE,45,0.0,0.0,92,0.04,CLR,,0.20,WeatherDisplay:10.37,2013-01-03 12:06:00,
2013-01-03 06:11:00,42.1,39.9,30.21,NE,45,0.0,0.0,92,0.02,CLR,,0.20,WeatherDisplay:10.37,2013-01-03 12:11:00,
2013-01-03 06:16:00,41.9,39.7,30.22,NE,45,0.0,0.0,92,0.02,CLR,,0.20,WeatherDisplay:10.37,2013-01-03 12:16:00,
2013-01-03 06:21:00,41.9,39.7,30.22,NE,45,0.0,0.0,92,0.02,CLR,,0.20,WeatherDisplay:10.37,2013-01-03 12:21:00,
2013-01-03 06:26:00,41.9,39.7,30.22,NE,45,0.0,0.0,92,0.02,CLR,,0.20,WeatherDisplay:10.37,2013-01-03 12:26:00,
2013-01-03 06:31:00,41.7,39.6,30.22,NE,45,0.0,0.0,92,0.02,CLR,,0.20,WeatherDisplay:10.37,2013-01-03 12:31:00,
2013-01-03 06:36:00,41.7,39.6,30.22,NE,45,2.3,3.5,92,0.02,CLR,,0.20,WeatherDisplay:10.37,2013-01-03 12:36:00,
2013-01-03 06:41:00,41.7,39.6,30.22,NE,45,0.0,0.0,92,0.02,CLR,,0.22,WeatherDisplay:10.37,2013-01-03 12:41:00,
2013-01-03 06:46:00,41.5,39.4,30.22,ENE,68,0.0,0.0,92,0.02,RA,,0.22,WeatherDisplay:10.37,2013-01-03 12:46:00,
2013-01-03 06:51:00,41.5,39.4,30.22,ENE,68,1.1,1.8,92,0.02,RA,,0.22,WeatherDisplay:10.37,2013-01-03 12:51:00,
2013-01-03 06:56:00,41.5,39.4,30.23,ENE,68,0.0,0.0,92,0.02,CLR,,0.22,WeatherDisplay:10.37,2013-01-03 12:56:00,
2013-01-03 07:01:00,41.5,39.4,30.23,NE,45,0.0,0.0,92,0.02,CLR,,0.22,WeatherDisplay:10.37,2013-01-03 13:01:00,
2013-01-03 07:06:00,41.5,39.4,30.23,NE,45,0.0,0.0,92,0.02,CLR,,0.22,WeatherDisplay:10.37,2013-01-03 13:06:00,
2013-01-03 07:11:00,41.5,39.4,30.23,ENE,68,0.0,0.0,92,0.02,CLR,,0.22,WeatherDisplay:10.37,2013-01-03 13:11:00,
2013-01-03 07:16:00,41.4,39.2,30.23,NE,45,2.3,2.8,92,0.02,CLR,,0.22,WeatherDisplay:10.37,2013-01-03 13:16:00,
2013-01-03 07:21:00,41.4,39.2,30.23,NE,45,0.0,0.0,92,0.02,CLR,,0.22,WeatherDisplay:10.37,2013-01-03 13:21:00,
2013-01-03 07:26:00,41.4,39.2,30.23,NE,45,0.0,0.0,92,0.02,CLR,,0.22,WeatherDisplay:10.37,2013-01-03 13:26:00,
2013-01-03 07:31:00,41.4,39.2,30.23,NNW,338,0.0,0.0,92,0.02,CLR,,0.22,WeatherDisplay:10.37,2013-01-03 13:31:00,
2013-01-03 07:36:00,41.2,39.0,30.23,ENE,68,6.9,0.0,92,0.04,RA,,0.24,WeatherDisplay:10.37,2013-01-03 13:36:00,
2013-01-03 07:41:00,41.4,39.2,30.24,WNW,292,0.0,0.0,92,0.04,RA,,0.24,WeatherDisplay:10.37,2013-01-03 13:41:00,
2013-01-03 07:46:00,41.4,39.2,30.24,ENE,68,0.0,0.0,92,0.02,CLR,,0.24,WeatherDisplay:10.37,2013-01-03 13:46:00,
2013-01-03 07:51:00,41.4,39.2,30.24,NNE,22,0.0,0.0,92,0.02,CLR,,0.24,WeatherDisplay:10.37,2013-01-03 13:51:00,
2013-01-03 07:56:00,41.2,39.0,30.24,North,0,0.0,0.0,92,0.02,CLR,,0.24,WeatherDisplay:10.37,2013-01-03 13:56:00,
2013-01-03 08:01:00,41.2,39.0,30.24,NE,45,0.0,0.0,92,0.02,CLR,,0.24,WeatherDisplay:10.37,2013-01-03 14:01:00,
2013-01-03 08:06:00,41.0,38.9,30.24,NE,45,0.0,0.0,92,0.02,CLR,,0.24,WeatherDisplay:10.37,2013-01-03 14:06:00,
2013-01-03 08:12:00,41.0,38.9,30.25,NNW,338,0.0,0.0,92,0.02,CLR,,0.24,WeatherDisplay:10.37,2013-01-03 14:12:00,
2013-01-03 08:17:00,41.0,38.9,30.25,SW,225,0.0,0.0,92,0.04,RA,,0.26,WeatherDisplay:10.37,2013-01-03 14:17:00,
2013-01-03 08:22:00,40.8,38.7,30.25,ENE,68,0.0,0.0,92,0.04,RA,,0.26,WeatherDisplay:10.37,2013-01-03 14:22:00,
2013-01-03 08:27:00,40.8,38.7,30.24,NE,45,0.0,0.0,92,0.04,,,0.26,WeatherDisplay:10.37,2013-01-03 14:27:00,
2013-01-03 08:32:00,40.8,38.7,30.25,NE,45,0.0,0.0,92,0.04,CLR,,0.26,WeatherDisplay:10.37,2013-01-03 14:32:00,
2013-01-03 08:37:00,41.0,38.9,30.23,ENE,68,10.6,10.6,92,0.02,CLR,,0.26,WeatherDisplay:10.37,2013-01-03 14:37:00,
2013-01-03 08:42:00,40.8,38.7,30.24,ENE,68,0.0,0.6,92,0.02,CLR,,0.26,WeatherDisplay:10.37,2013-01-03 14:42:00,
2013-01-03 08:47:00,41.0,38.9,30.24,ENE,68,0.0,0.0,92,0.02,CLR,,0.26,WeatherDisplay:10.37,2013-01-03 14:47:00,
2013-01-03 08:52:00,41.2,39.0,30.25,ENE,68,0.0,0.0,92,0.02,CLR,,0.26,WeatherDisplay:10.37,2013-01-03 14:52:00,
2013-01-03 08:57:00,41.2,39.0,30.26,NNE,22,0.0,0.0,92,0.02,CLR,,0.26,WeatherDisplay:10.37,2013-01-03 14:57:00,
2013-01-03 09:02:00,41.4,39.2,30.27,NNW,338,0.0,0.0,92,0.02,CLR,,0.26,WeatherDisplay:10.37,2013-01-03 15:02:00,
2013-01-03 09:07:00,41.5,39.4,30.27,NW,315,0.0,0.0,92,0.02,CLR,,0.26,WeatherDisplay:10.37,2013-01-03 15:07:00,
2013-01-03 09:12:00,41.7,39.6,30.27,NE,45,0.0,0.0,92,0.02,CLR,,0.26,WeatherDisplay:10.37,2013-01-03 15:12:00,
2013-01-03 09:17:00,41.9,39.7,30.27,ENE,68,0.0,0.0,92,0.00,CLR,,0.26,WeatherDisplay:10.37,2013-01-03 15:17:00,
2013-01-03 09:22:00,41.7,39.3,30.27,ENE,68,4.6,4.6,91,0.00,CLR,,0.26,WeatherDisplay:10.37,2013-01-03 15:22:00,
2013-01-03 09:27:00,41.7,39.3,30.28,NNW,338,0.0,0.0,91,0.00,CLR,,0.26,WeatherDisplay:10.37,2013-01-03 15:27:00,
2013-01-03 09:32:00,41.5,39.1,30.28,NE,45,8.8,0.0,91,0.00,CLR,,0.26,WeatherDisplay:10.37,2013-01-03 15:32:00,
2013-01-03 09:37:00,41.5,39.1,30.28,NE,45,0.0,0.0,91,0.00,CLR,,0.26,WeatherDisplay:10.37,2013-01-03 15:37:00,
2013-01-03 09:42:00,41.5,39.1,30.28,ENE,68,10.4,0.0,91,0.00,CLR,,0.26,WeatherDisplay:10.37,2013-01-03 15:42:00,
2013-01-03 09:47:00,41.5,39.1,30.26,ENE,68,0.0,0.0,91,0.00,CLR,,0.26,WeatherDisplay:10.37,2013-01-03 15:47:00,
2013-01-03 09:52:00,41.5,39.1,30.26,ENE,68,8.1,14.7,91,0.00,CLR,,0.26,WeatherDisplay:10.37,2013-01-03 15:52:00,
2013-01-03 09:57:00,41.7,39.3,30.26,ENE,68,10.4,20.1,91,0.00,CLR,,0.26,WeatherDisplay:10.37,2013-01-03 15:57:00,
2013-01-03 10:02:00,41.9,39.5,30.27,ENE,68,0.0,0.0,91,0.00,CLR,,0.26,WeatherDisplay:10.37,2013-01-03 16:02:00,
2013-01-03 10:07:00,42.1,39.6,30.27,ENE,68,0.0,0.0,91,0.00,CLR,,0.26,WeatherDisplay:10.37,2013-01-03 16:07:00,
2013-01-03 10:12:00,42.1,39.6,30.28,NE,45,0.0,0.0,91,0.00,CLR,,0.26,WeatherDisplay:10.37,2013-01-03 16:12:00,
2013-01-03 10:17:00,42.4,39.7,30.27,NNE,22,13.7,23.8,90,0.00,CLR,,0.26,WeatherDisplay:10.37,2013-01-03 16:17:00,
2013-01-03 10:22:00,42.4,39.7,30.27,NE,45,9.2,9.2,90,0.00,CLR,,0.26,WeatherDisplay:10.37,2013-01-03 16:22:00,
2013-01-03 10:28:00,42.4,39.7,30.28,ENE,68,0.0,3.2,90,0.00,CLR,,0.26,WeatherDisplay:10.37,2013-01-03 16:28:00,
2013-01-03 10:33:00,42.6,39.9,30.27,ENE,68,4.6,5.3,90,0.00,CLR,,0.26,WeatherDisplay:10.37,2013-01-03 16:33:00,
2013-01-03 10:38:00,42.4,39.4,30.27,ENE,68,4.6,9.6,89,0.00,CLR,,0.26,WeatherDisplay:10.37,2013-01-03 16:38:00,
2013-01-03 10:43:00,42.4,39.4,30.27,ENE,68,0.0,0.0,89,0.00,CLR,,0.26,WeatherDisplay:10.37,2013-01-03 16:43:00,
2013-01-03 10:48:00,42.4,39.4,30.26,NE,45,2.7,4.2,89,0.00,CLR,,0.26,WeatherDisplay:10.37,2013-01-03 16:48:00,
2013-01-03 10:53:00,42.4,39.4,30.26,ENE,68,0.0,0.0,89,0.00,CLR,,0.26,WeatherDisplay:10.37,2013-01-03 16:53:00,
2013-01-03 10:58:00,42.6,39.6,30.27,NNW,338,0.0,0.0,89,0.00,CLR,,0.26,WeatherDisplay:10.37,2013-01-03 16:58:00,
2013-01-03 11:03:00,42.4,39.4,30.25,ENE,68,6.9,7.7,89,0.00,CLR,,0.26,WeatherDisplay:10.37,2013-01-03 17:03:00,
2013-01-03 11:08:00,42.4,39.4,30.25,NNW,338,0.0,5.1,89,0.00,CLR,,0.26,WeatherDisplay:10.37,2013-01-03 17:08:00,
2013-01-03 11:13:00,42.4,39.1,30.25,ENE,68,3.5,7.9,88,0.00,CLR,,0.26,WeatherDisplay:10.37,2013-01-03 17:13:00,
2013-01-03 11:18:00,42.4,39.1,30.25,ENE,68,0.0,0.0,88,0.00,CLR,,0.26,WeatherDisplay:10.37,2013-01-03 17:18:00,
2013-01-03 11:23:00,42.4,39.1,30.25,ENE,68,9.3,18.4,88,0.00,CLR,,0.26,WeatherDisplay:10.37,2013-01-03 17:23:00,
2013-01-03 11:28:00,42.6,39.3,30.25,North,0,9.2,17.5,88,0.00,CLR,,0.26,WeatherDisplay:10.37,2013-01-03 17:28:00,
2013-01-03 11:33:00,42.6,39.3,30.25,ENE,68,0.0,0.0,88,0.00,CLR,,0.26,WeatherDisplay:10.37,2013-01-03 17:33:00,
2013-01-03 11:38:00,42.6,39.3,30.25,North,0,0.0,0.0,88,0.00,CLR,,0.26,WeatherDisplay:10.37,2013-01-03 17:38:00,
2013-01-03 11:43:00,43.0,39.7,30.26,NNE,22,3.5,6.1,88,0.00,CLR,,0.26,WeatherDisplay:10.37,2013-01-03 17:43:00,
2013-01-03 11:48:00,43.0,39.4,30.25,NE,45,0.0,0.0,87,0.00,CLR,,0.26,WeatherDisplay:10.37,2013-01-03 17:48:00,
2013-01-03 11:53:00,43.2,39.6,30.25,ENE,68,1.1,2.5,87,0.00,CLR,,0.26,WeatherDisplay:10.37,2013-01-03 17:53:00,
2013-01-03 11:58:00,43.0,39.4,30.24,ENE,68,0.0,0.0,87,0.00,CLR,,0.26,WeatherDisplay:10.37,2013-01-03 17:58:00,
2013-01-03 12:03:00,43.0,39.4,30.24,NNE,22,0.0,0.0,87,0.00,CLR,,0.26,WeatherDisplay:10.37,2013-01-03 18:03:00,
2013-01-03 12:08:00,43.0,39.1,30.23,ENE,68,0.0,0.0,86,0.00,CLR,,0.26,WeatherDisplay:10.37,2013-01-03 18:08:00,
2013-01-03 12:13:00,43.0,39.4,30.24,ENE,68,3.5,7.2,87,0.00,CLR,,0.26,WeatherDisplay:10.37,2013-01-03 18:13:00,
2013-01-03 12:18:00,43.0,39.4,30.22,ENE,68,9.2,9.2,87,0.00,CLR,,0.26,WeatherDisplay:10.37,2013-01-03 18:18:00,
2013-01-03 12:23:00,43.0,39.1,30.23,ENE,68,8.1,16.6,86,0.00,CLR,,0.26,WeatherDisplay:10.37,2013-01-03 18:23:00,
2013-01-03 12:28:00,43.0,39.1,30.22,ENE,68,8.1,15.0,86,0.00,CLR,,0.26,WeatherDisplay:10.37,2013-01-03 18:28:00,
2013-01-03 12:33:00,43.0,39.1,30.22,ENE,68,6.9,7.4,86,0.00,CLR,,0.26,WeatherDisplay:10.37,2013-01-03 18:33:00,
2013-01-03 12:38:00,43.0,39.1,30.23,ENE,68,11.5,15.3,86,0.00,CLR,,0.26,WeatherDisplay:10.37,2013-01-03 18:38:00,
2013-01-03 12:43:00,43.0,39.1,30.22,ENE,68,8.1,14.2,86,0.00,CLR,,0.26,WeatherDisplay:10.37,2013-01-03 18:43:00,
2013-01-03 12:48:00,43.0,39.1,30.23,ENE,68,9.2,9.2,86,0.00,CLR,,0.26,WeatherDisplay:10.37,2013-01-03 18:48:00,
2013-01-03 12:53:00,43.0,39.1,30.23,ENE,68,4.6,8.8,86,0.00,CLR,,0.26,WeatherDisplay:10.37,2013-01-03 18:53:00,
2013-01-03 12:58:00,43.2,39.3,30.22,ENE,68,8.4,16.6,86,0.00,CLR,,0.26,WeatherDisplay:10.37,2013-01-03 18:58:00,
2013-01-03 13:03:00,43.3,39.4,30.22,NE,45,8.1,12.2,86,0.00,CLR,,0.26,WeatherDisplay:10.37,2013-01-03 19:03:00,
2013-01-03 13:08:00,43.3,39.4,30.21,NNW,338,0.0,0.9,86,0.00,CLR,,0.26,WeatherDisplay:10.37,2013-01-03 19:08:00,
2013-01-03 13:13:00,43.3,38.8,30.21,NNE,22,10.4,21.0,84,0.00,CLR,,0.26,WeatherDisplay:10.37,2013-01-03 19:13:00,
2013-01-03 13:18:00,43.5,39.0,30.22,ENE,68,8.1,14.7,84,0.00,CLR,,0.26,WeatherDisplay:10.37,2013-01-03 19:18:00,
2013-01-03 13:54:00,44.8,39.9,30.22,ENE,68,11.5,12.6,83,0.00,CLR,,0.26,WeatherDisplay:10.37,2013-01-03 19:54:00,
2013-01-03 14:00:00,44.8,39.9,30.23,WNW,292,4.6,9.6,83,0.00,CLR,,0.26,WeatherDisplay:10.37,2013-01-03 20:00:00,
2013-01-03 14:05:00,45.0,40.1,30.23,ENE,68,5.8,8.2,83,0.00,CLR,,0.26,WeatherDisplay:10.37,2013-01-03 20:05:00,
2013-01-03 14:10:00,45.0,39.8,30.23,ENE,68,11.5,17.9,82,0.00,CLR,,0.26,WeatherDisplay:10.37,2013-01-03 20:10:00,
2013-01-03 14:15:00,44.8,39.6,30.23,NE,45,3.5,7.9,82,0.00,CLR,,0.26,WeatherDisplay:10.37,2013-01-03 20:15:00,
2013-01-03 14:20:00,44.8,39.6,30.23,ENE,68,6.2,9.9,82,0.00,CLR,,0.26,WeatherDisplay:10.37,2013-01-03 20:20:00,
2013-01-03 14:25:00,44.8,39.6,30.23,NE,45,2.3,4.4,82,0.00,CLR,,0.26,WeatherDisplay:10.37,2013-01-03 20:25:00,
2013-01-03 14:30:00,45.0,39.8,30.24,NE,45,3.5,6.1,82,0.00,CLR,,0.26,WeatherDisplay:10.37,2013-01-03 20:30:00,
2013-01-03 14:35:00,45.0,39.5,30.24,NNW,338,8.1,11.8,81,0.00,CLR,,0.26,WeatherDisplay:10.37,2013-01-03 20:35:00,
2013-01-03 14:40:00,45.0,39.2,30.23,WSW,248,4.6,4.6,80,0.00,CLR,,0.26,WeatherDisplay:10.37,2013-01-03 20:40:00,
2013-01-03 14:45:00,45.0,39.2,30.23,WNW,292,9.2,17.5,80,0.00,CLR,,0.26,WeatherDisplay:10.37,2013-01-03 20:45:00,
2013-01-03 14:50:00,45.0,39.2,30.24,North,0,3.5,5.5,80,0.00,CLR,,0.26,WeatherDisplay:10.37,2013-01-03 20:50:00,
2013-01-03 14:55:00,45.1,39.3,30.24,ENE,68,2.3,4.4,80,0.00,CLR,,0.26,WeatherDisplay:10.37,2013-01-03 20:55:00,
2013-01-03 15:00:00,45.1,39.3,30.23,ENE,68,9.2,18.4,80,0.00,CLR,,0.26,WeatherDisplay:10.37,2013-01-03 21:00:00,
2013-01-03 15:05:00,45.1,39.3,30.23,ENE,68,12.7,15.9,80,0.00,CLR,,0.26,WeatherDisplay:10.37,2013-01-03 21:05:00,
2013-01-03 15:10:00,45.0,38.8,30.23,ENE,68,11.5,21.9,79,0.00,CLR,,0.26,WeatherDisplay:10.37,2013-01-03 21:10:00,
2013-01-03 15:15:00,45.0,38.8,30.24,NE,45,0.0,0.0,79,0.00,CLR,,0.26,WeatherDisplay:10.37,2013-01-03 21:15:00,
2013-01-03 15:20:00,45.0,38.8,30.24,ENE,68,6.9,11.7,79,0.00,CLR,,0.26,WeatherDisplay:10.37,2013-01-03 21:20:00,
2013-01-03 15:25:00,45.0,38.8,30.24,ENE,68,8.1,14.9,79,0.00,CLR,,0.26,WeatherDisplay:10.37,2013-01-03 21:25:00,
2013-01-03 15:30:00,45.0,38.8,30.24,NE,45,8.0,9.6,79,0.00,CLR,,0.26,WeatherDisplay:10.37,2013-01-03 21:30:00,
2013-01-03 15:35:00,45.0,38.8,30.24,ENE,68,3.5,7.9,79,0.00,CLR,,0.26,WeatherDisplay:10.37,2013-01-03 21:35:00,
2013-01-03 15:40:00,45.0,38.8,30.24,ENE,68,0.0,0.0,79,0.00,CLR,,0.26,WeatherDisplay:10.37,2013-01-03 21:40:00,
2013-01-03 15:45:00,45.0,38.8,30.24,ENE,68,11.5,22.8,79,0.00,CLR,,0.26,WeatherDisplay:10.37,2013-01-03 21:45:00,
2013-01-03 15:50:00,45.0,38.5,30.24,ENE,68,13.8,23.9,78,0.00,CLR,,0.26,WeatherDisplay:10.37,2013-01-03 21:50:00,
2013-01-03 15:55:00,45.0,38.8,30.25,ENE,68,1.1,2.1,79,0.00,CLR,,0.26,WeatherDisplay:10.37,2013-01-03 21:55:00,
2013-01-03 16:00:00,45.1,39.0,30.25,ENE,68,9.2,18.8,79,0.00,CLR,,0.26,WeatherDisplay:10.37,2013-01-03 22:00:00,
2013-01-03 16:05:00,45.0,38.8,30.25,NE,45,6.9,8.5,79,0.00,CLR,,0.26,WeatherDisplay:10.37,2013-01-03 22:05:00,
2013-01-03 16:10:00,45.0,38.8,30.25,ENE,68,4.0,7.9,79,0.00,CLR,,0.26,WeatherDisplay:10.37,2013-01-03 22:10:00,
2013-01-03 16:15:00,45.0,38.8,30.25,NE,45,5.8,10.5,79,0.00,CLR,,0.26,WeatherDisplay:10.37,2013-01-03 22:15:00,
2013-01-03 16:20:00,45.0,38.8,30.25,NE,45,3.5,3.7,79,0.00,CLR,,0.26,WeatherDisplay:10.37,2013-01-03 22:20:00,
2013-01-03 16:25:00,44.8,38.7,30.25,ENE,68,12.7,24.5,79,0.00,CLR,,0.26,WeatherDisplay:10.37,2013-01-03 22:25:00,
2013-01-03 16:30:00,44.6,38.5,30.26,East,90,0.0,0.0,79,0.00,CLR,,0.26,WeatherDisplay:10.37,2013-01-03 22:30:00,
2013-01-03 16:35:00,44.4,38.3,30.26,NE,45,3.5,3.5,79,0.00,CLR,,0.26,WeatherDisplay:10.37,2013-01-03 22:35:00,
2013-01-03 16:40:00,44.4,38.3,30.27,NE,45,0.0,0.0,79,0.00,CLR,,0.26,WeatherDisplay:10.37,2013-01-03 22:40:00,
2013-01-03 16:45:00,44.4,38.3,30.27,NE,45,0.0,0.0,79,0.00,CLR,,0.26,WeatherDisplay:10.37,2013-01-03 22:45:00,
2013-01-03 16:50:00,44.1,38.0,30.27,NE,45,0.0,0.0,79,0.00,CLR,,0.26,WeatherDisplay:10.37,2013-01-03 22:50:00,
2013-01-03 16:55:00,43.9,38.1,30.27,NE,45,0.0,0.0,80,0.00,CLR,,0.26,WeatherDisplay:10.37,2013-01-03 22:55:00,
2013-01-03 17:00:00,43.7,37.9,30.27,NE,45,0.0,0.0,80,0.00,CLR,,0.26,WeatherDisplay:10.37,2013-01-03 23:00:00,
2013-01-03 17:05:00,43.5,37.8,30.28,NE,45,0.0,0.0,80,0.00,CLR,,0.26,WeatherDisplay:10.37,2013-01-03 23:05:00,
2013-01-03 17:10:00,43.3,37.9,30.27,NE,45,0.0,0.0,81,0.00,CLR,,0.26,WeatherDisplay:10.37,2013-01-03 23:10:00,
2013-01-03 17:15:00,43.2,37.7,30.28,NE,45,0.0,0.0,81,0.00,CLR,,0.26,WeatherDisplay:10.37,2013-01-03 23:15:00,
2013-01-03 17:20:00,43.0,37.5,30.28,NE,45,0.0,0.0,81,0.00,CLR,,0.26,WeatherDisplay:10.37,2013-01-03 23:20:00,
2013-01-03 17:25:00,42.6,37.5,30.28,NE,45,0.0,0.0,82,0.00,CLR,,0.26,WeatherDisplay:10.37,2013-01-03 23:25:00,
2013-01-03 17:30:00,42.6,37.5,30.28,NE,45,0.0,0.0,82,0.00,CLR,,0.26,WeatherDisplay:10.37,2013-01-03 23:30:00,
2013-01-03 17:35:00,42.3,37.2,30.28,NE,45,0.0,0.0,82,0.00,CLR,,0.26,WeatherDisplay:10.37,2013-01-03 23:35:00,
2013-01-03 17:40:00,42.1,37.0,30.28,NE,45,0.0,0.0,82,0.00,CLR,,0.26,WeatherDisplay:10.37,2013-01-03 23:40:00,
2013-01-03 17:45:00,41.7,36.9,30.28,NE,45,0.9,0.9,83,0.00,CLR,,0.26,WeatherDisplay:10.37,2013-01-03 23:45:00,
2013-01-03 17:50:00,41.5,36.8,30.29,NE,45,0.0,0.0,83,0.00,CLR,,0.26,WeatherDisplay:10.37,2013-01-03 23:50:00,
2013-01-03 17:55:00,41.5,36.8,30.29,NE,45,0.0,0.0,83,0.00,CLR,,0.26,WeatherDisplay:10.37,2013-01-03 23:55:00,
2013-01-03 18:00:00,41.2,36.4,30.29,NE,45,0.0,0.0,83,0.00,CLR,,0.26,WeatherDisplay:10.37,2013-01-04 00:00:00,
2013-01-03 18:05:00,41.2,36.4,30.29,NE,45,0.0,0.0,83,0.00,CLR,,0.26,WeatherDisplay:10.37,2013-01-04 00:05:00,
2013-01-03 18:10:00,41.0,36.5,30.30,NE,45,0.0,0.0,84,0.00,CLR,,0.26,WeatherDisplay:10.37,2013-01-04 00:10:00,
2013-01-03 18:15:00,40.8,36.4,30.30,NE,45,0.0,0.0,84,0.00,CLR,,0.26,WeatherDisplay:10.37,2013-01-04 00:15:00,
2013-01-03 18:20:00,40.8,36.4,30.30,NE,45,0.0,0.0,84,0.00,CLR,,0.26,WeatherDisplay:10.37,2013-01-04 00:20:00,
2013-01-03 18:25:00,40.6,36.2,30.30,NE,45,0.0,0.0,84,0.00,CLR,,0.26,WeatherDisplay:10.37,2013-01-04 00:25:00,
2013-01-03 18:30:00,40.6,36.2,30.30,NE,45,0.0,0.0,84,0.00,CLR,,0.26,WeatherDisplay:10.37,2013-01-04 00:30:00,
2013-01-03 18:35:00,40.5,36.0,30.30,NE,45,0.0,0.0,84,0.00,CLR,,0.26,WeatherDisplay:10.37,2013-01-04 00:35:00,
2013-01-03 18:40:00,40.3,35.8,30.30,NE,45,0.0,0.0,84,0.00,CLR,,0.26,WeatherDisplay:10.37,2013-01-04 00:40:00,
2013-01-03 18:45:00,40.3,35.8,30.30,NE,45,0.0,0.0,84,0.00,CLR,,0.26,WeatherDisplay:10.37,2013-01-04 00:45:00,
2013-01-03 18:50:00,40.1,35.7,30.30,NE,45,0.0,0.0,84,0.00,CLR,,0.26,WeatherDisplay:10.37,2013-01-04 00:50:00,
2013-01-03 18:55:00,39.9,35.5,30.31,NE,45,0.0,0.0,84,0.00,CLR,,0.26,WeatherDisplay:10.37,2013-01-04 00:55:00,
2013-01-03 19:00:00,39.9,35.5,30.32,NE,45,0.0,0.0,84,0.00,CLR,,0.26,WeatherDisplay:10.37,2013-01-04 01:00:00,
2013-01-03 19:05:00,39.7,35.3,30.31,NE,45,0.0,0.0,84,0.00,CLR,,0.26,WeatherDisplay:10.37,2013-01-04 01:05:00,
2013-01-03 19:10:00,39.7,35.6,30.32,NE,45,0.0,0.0,85,0.00,CLR,,0.26,WeatherDisplay:10.37,2013-01-04 01:10:00,
2013-01-03 19:15:00,39.7,35.6,30.32,NE,45,0.0,0.0,85,0.00,CLR,,0.26,WeatherDisplay:10.37,2013-01-04 01:15:00,
2013-01-03 19:20:00,39.6,35.4,30.32,NE,45,0.0,0.0,85,0.00,CLR,,0.26,WeatherDisplay:10.37,2013-01-04 01:20:00,
2013-01-03 19:25:00,39.6,35.4,30.32,NE,45,0.0,0.0,85,0.00,CLR,,0.26,WeatherDisplay:10.37,2013-01-04 01:25:00,
2013-01-03 19:30:00,39.6,35.4,30.32,NE,45,0.0,0.5,85,0.00,CLR,,0.26,WeatherDisplay:10.37,2013-01-04 01:30:00,
2013-01-03 19:35:00,39.4,35.2,30.32,NE,45,1.1,1.5,85,0.00,CLR,,0.26,WeatherDisplay:10.37,2013-01-04 01:35:00,
2013-01-03 19:40:00,39.4,34.9,30.32,NE,45,0.0,0.0,84,0.00,CLR,,0.26,WeatherDisplay:10.37,2013-01-04 01:40:00,
2013-01-03 19:45:00,39.4,34.9,30.33,NE,45,3.1,0.0,84,0.00,CLR,,0.26,WeatherDisplay:10.37,2013-01-04 01:45:00,
2013-01-03 19:50:00,39.4,34.9,30.33,NE,45,0.0,0.0,84,0.00,CLR,,0.26,WeatherDisplay:10.37,2013-01-04 01:50:00,
2013-01-03 19:55:00,39.4,34.6,30.33,NE,45,0.0,0.0,83,0.00,CLR,,0.26,WeatherDisplay:10.37,2013-01-04 01:55:00,
2013-01-03 20:00:00,39.4,34.6,30.33,NE,45,0.0,0.0,83,0.00,CLR,,0.26,WeatherDisplay:10.37,2013-01-04 02:00:00,
2013-01-03 20:05:00,39.2,34.5,30.33,NE,45,0.0,0.0,83,0.00,CLR,,0.26,WeatherDisplay:10.37,2013-01-04 02:05:00,
2013-01-03 20:10:00,39.0,34.3,30.33,NE,45,0.0,0.0,83,0.00,CLR,,0.26,WeatherDisplay:10.37,2013-01-04 02:10:00,
2013-01-03 20:15:00,39.0,34.0,30.33,NE,45,1.1,1.5,82,0.00,CLR,,0.26,WeatherDisplay:10.37,2013-01-04 02:15:00,
2013-01-03 20:20:00,39.0,34.0,30.34,NE,45,0.0,0.0,82,0.00,CLR,,0.26,WeatherDisplay:10.37,2013-01-04 02:20:00,
2013-01-03 20:25:00,39.0,34.0,30.33,NE,45,0.0,0.0,82,0.00,CLR,,0.26,WeatherDisplay:10.37,2013-01-04 02:25:00,
2013-01-03 20:30:00,38.8,33.8,30.34,NE,45,0.0,0.0,82,0.00,CLR,,0.26,WeatherDisplay:10.37,2013-01-04 02:30:00,
2013-01-03 20:35:00,38.8,33.8,30.34,NE,45,0.0,0.0,82,0.00,CLR,,0.26,WeatherDisplay:10.37,2013-01-04 02:35:00,
2013-01-03 20:40:00,38.5,33.5,30.34,NE,45,0.0,0.0,82,0.00,CLR,,0.26,WeatherDisplay:10.37,2013-01-04 02:40:00,
2013-01-03 20:45:00,38.5,33.5,30.34,NE,45,0.0,0.0,82,0.00,CLR,,0.26,WeatherDisplay:10.37,2013-01-04 02:45:00,
2013-01-03 20:50:00,38.3,33.3,30.34,NE,45,0.0,0.0,82,0.00,CLR,,0.26,WeatherDisplay:10.37,2013-01-04 02:50:00,
2013-01-03 20:55:00,38.1,33.1,30.33,NE,45,0.0,0.0,82,0.00,CLR,,0.26,WeatherDisplay:10.37,2013-01-04 02:55:00,
2013-01-03 21:00:00,38.1,33.1,30.34,NE,45,0.0,0.0,82,0.00,CLR,,0.26,WeatherDisplay:10.37,2013-01-04 03:00:00,
2013-01-03 21:05:00,37.9,32.9,30.34,NE,45,0.0,0.0,82,0.00,CLR,,0.26,WeatherDisplay:10.37,2013-01-04 03:05:00,
2013-01-03 21:10:00,37.8,33.1,30.34,NE,45,0.0,0.0,83,0.00,CLR,,0.26,WeatherDisplay:10.37,2013-01-04 03:10:00,
2013-01-03 21:15:00,37.8,33.1,30.34,NE,45,0.0,0.0,83,0.00,CLR,,0.26,WeatherDisplay:10.37,2013-01-04 03:15:00,
2013-01-03 21:20:00,37.6,32.9,30.34,NE,45,0.0,0.0,83,0.00,CLR,,0.26,WeatherDisplay:10.37,2013-01-04 03:20:00,
2013-01-03 21:25:00,37.6,32.9,30.34,NE,45,0.0,0.0,83,0.00,CLR,,0.26,WeatherDisplay:10.37,2013-01-04 03:25:00,
2013-01-03 21:30:00,37.4,33.0,30.34,NE,45,0.0,0.0,84,0.00,CLR,,0.26,WeatherDisplay:10.37,2013-01-04 03:30:00,
2013-01-03 21:35:00,37.2,32.8,30.34,NE,45,0.0,0.0,84,0.00,CLR,,0.26,WeatherDisplay:10.37,2013-01-04 03:35:00,
2013-01-03 21:40:00,37.2,32.8,30.34,NE,45,0.0,0.0,84,0.00,CLR,,0.26,WeatherDisplay:10.37,2013-01-04 03:40:00,
2013-01-03 21:45:00,36.9,32.5,30.35,NE,45,0.0,0.0,84,0.00,CLR,,0.26,WeatherDisplay:10.37,2013-01-04 03:45:00,
2013-01-03 21:50:00,36.5,32.4,30.35,NE,45,0.0,0.0,85,0.00,CLR,,0.26,WeatherDisplay:10.37,2013-01-04 03:50:00,
2013-01-03 21:55:00,36.3,32.2,30.35,NE,45,0.0,0.0,85,0.00,CLR,,0.26,WeatherDisplay:10.37,2013-01-04 03:55:00,
2013-01-03 22:00:00,36.3,32.2,30.35,NE,45,0.0,0.0,85,0.00,CLR,,0.26,WeatherDisplay:10.37,2013-01-04 04:00:00,
2013-01-03 22:05:00,36.1,32.1,30.35,NE,45,0.0,0.0,85,0.00,CLR,,0.26,WeatherDisplay:10.37,2013-01-04 04:05:00,
2013-01-03 22:10:00,36.0,32.2,30.34,NE,45,0.0,0.0,86,0.00,CLR,,0.26,WeatherDisplay:10.37,2013-01-04 04:10:00,
2013-01-03 22:15:00,35.8,32.0,30.34,NE,45,0.0,0.0,86,0.00,CLR,,0.26,WeatherDisplay:10.37,2013-01-04 04:15:00,
2013-01-03 22:20:00,35.8,32.0,30.34,NE,45,0.0,0.0,86,0.00,CLR,,0.26,WeatherDisplay:10.37,2013-01-04 04:20:00,
2013-01-03 22:25:00,35.4,31.6,30.34,NE,45,0.0,0.0,86,0.00,CLR,,0.26,WeatherDisplay:10.37,2013-01-04 04:25:00,
2013-01-03 22:30:00,35.4,31.6,30.34,NE,45,0.0,0.0,86,0.00,CLR,,0.26,WeatherDisplay:10.37,2013-01-04 04:30:00,
2013-01-03 22:35:00,35.1,31.3,30.34,NE,45,0.0,0.0,86,0.00,CLR,,0.26,WeatherDisplay:10.37,2013-01-04 04:35:00,
2013-01-03 22:40:00,34.9,31.4,30.34,NE,45,0.0,0.0,87,0.00,CLR,,0.26,WeatherDisplay:10.37,2013-01-04 04:40:00,
2013-01-03 22:45:00,34.9,31.4,30.35,NE,45,0.0,0.0,87,0.00,CLR,,0.26,WeatherDisplay:10.37,2013-01-04 04:45:00,
2013-01-03 22:50:00,34.9,31.4,30.35,NE,45,0.0,0.0,87,0.00,CLR,,0.26,WeatherDisplay:10.37,2013-01-04 04:50:00,
2013-01-03 22:55:00,34.9,31.4,30.36,NE,45,0.0,0.0,87,0.00,CLR,,0.26,WeatherDisplay:10.37,2013-01-04 04:55:00,
2013-01-03 23:02:00,34.9,31.7,30.35,NE,45,0.0,0.0,88,0.00,CLR,,0.26,WeatherDisplay:10.37,2013-01-04 05:02:00,
2013-01-03 23:03:00,34.9,31.7,30.35,NE,45,0.0,0.0,88,0.00,CLR,,0.26,WeatherDisplay:10.37,2013-01-04 05:03:00,
2013-01-03 23:04:00,34.9,31.7,30.35,NE,45,0.0,0.0,88,0.00,CLR,,0.26,WeatherDisplay:10.37,2013-01-04 05:04:00,
2013-01-03 23:05:00,34.9,31.7,30.35,NE,45,0.0,0.0,88,0.00,CLR,,0.26,WeatherDisplay:10.37,2013-01-04 05:05:00,
2013-01-03 23:10:00,34.5,31.3,30.35,NE,45,0.0,0.0,88,0.00,CLR,,0.26,WeatherDisplay:10.37,2013-01-04 05:10:00,
2013-01-03 23:15:00,34.3,30.9,30.35,NE,45,0.0,0.0,87,0.00,CLR,,0.26,WeatherDisplay:10.37,2013-01-04 05:15:00,
2013-01-03 23:20:00,34.3,30.9,30.34,NE,45,0.0,0.0,87,0.00,CLR,,0.26,WeatherDisplay:10.37,2013-01-04 05:20:00,
2013-01-03 23:25:00,34.2,30.7,30.33,NE,45,0.0,0.0,87,0.00,CLR,,0.26,WeatherDisplay:10.37,2013-01-04 05:25:00,
2013-01-03 23:30:00,34.0,30.5,30.34,NE,45,0.0,0.0,87,0.00,CLR,,0.26,WeatherDisplay:10.37,2013-01-04 05:30:00,
2013-01-03 23:35:00,34.3,31.2,30.34,NE,45,0.0,0.0,88,0.00,CLR,,0.26,WeatherDisplay:10.37,2013-01-04 05:35:00,
2013-01-03 23:40:00,34.3,31.2,30.35,NE,45,0.0,0.0,88,0.00,CLR,,0.26,WeatherDisplay:10.37,2013-01-04 05:40:00,
2013-01-03 23:45:00,34.3,31.2,30.35,NE,45,1.1,0.0,88,0.00,CLR,,0.26,WeatherDisplay:10.37,2013-01-04 05:45:00,
2013-01-03 23:50:00,34.3,31.2,30.34,NE,45,0.0,0.0,88,0.00,CLR,,0.26,WeatherDisplay:10.37,2013-01-04 05:50:00,
2013-01-03 23:55:00,34.3,31.2,30.34,NE,45,0.0,0.0,88,0.00,CLR,,0.26,WeatherDisplay:10.37,2013-01-04 05:55:00,